Torna al catalogo

SL-12 R/B

AUX MOTOR

AttivoHEO
NORAD 13608·ROCKET BODY·🇷🇺 Russia

Lanciato Oct 12, 1982 da Baikonur Cosmodrome

Loading…

Prossimi Passaggi (prossime 24 ore)

TLE

AggiornatoSource: Space-Track

Epoca: Sep 14, 2026, 13:05 UTC

1 13608U 82100F   26257.54577554  .00072058  00000-0  15053-2 0  9991
2 13608  52.0271  60.1615 3250331 154.5835 225.8884  8.95173804994255

Traccia SL-12 R/B in tempo reale con AllMySat

Download on the App Store